GFSFLT2_925_spd_114.txt.gz
Wind_Speed
16 18 18 17 16 15 14 14 13 13 13 15 16 15 16 18 20 19 17 16 13 13 10 9 15 16 14 10 9 11 6 11
13 17 19 19 18 17 16 15 14 13 13 15 14 14 16 18 18 18 18 16 15 14 7 12 15 12 15 12 10 11 9 12
16 16 16 17 17 18 18 17 15 15 14 15 15 16 16 18 18 19 18 17 16 12 9 14 16 21 16 15 13 14 9 14
20 19 18 17 16 15 20 19 19 18 16 15 17 17 16 16 17 21 19 20 17 13 13 13 17 17 18 17 20 18 10 12
22 22 22 22 18 18 17 17 17 17 17 18 15 16 19 18 18 21 22 21 17 16 15 15 17 19 21 23 23 23 5 14
24 25 24 24 20 22 21 23 19 18 20 21 19 20 19 18 17 20 23 22 23 17 19 17 15 21 21 26 25 25 14 10
33 30 29 26 25 22 21 25 22 20 20 23 24 20 20 19 18 18 20 21 22 23 21 19 19 20 20 25 30 27 12 14
36 35 33 28 26 23 24 21 23 22 22 22 23 23 23 21 20 19 19 21 22 23 24 21 21 20 19 22 28 25 14 14
35 35 33 29 26 28 20 22 20 24 23 26 23 26 21 21 21 19 21 18 20 22 21 19 20 21 20 23 26 22 18 20
23 28 34 32 26 24 26 20 22 19 24 29 26 25 24 23 20 21 22 19 19 19 20 23 22 25 25 27 27 24 23 22
21 31 30 30 27 24 25 26 22 23 21 21 27 28 28 24 22 20 18 21 20 21 19 24 26 25 26 26 28 27 20 25
20 22 31 29 25 28 22 25 27 23 23 22 23 26 28 31 25 17 21 19 21 20 22 22 23 27 24 26 30 29 24 26
2 7 19 27 24 23 25 24 25 26 24 23 23 26 28 28 27 22 20 21 23 23 20 21 23 25 18 18 21 28 27 25
5 8 10 15 22 25 24 26 24 24 24 22 26 29 27 26 26 28 24 25 23 23 26 20 20 28 14 17 5 9 21 17
8 11 15 18 23 24 23 16 17 22 29 29 26 28 29 27 27 27 27 27 27 26 27 26 18 24 24 8 4 3 11 18
1 8 12 14 19 23 26 21 17 21 23 27 24 25 26 27 25 29 27 28 28 27 27 27 24 20 22 15 8 10 6 4
3 5 12 14 15 25 26 22 21 20 22 24 34 29 30 28 27 28 26 28 28 28 26 28 30 25 23 18 14 14 13 9
1 8 15 12 15 16 24 25 23 20 23 27 28 26 31 29 29 29 27 29 29 27 27 31 31 28 25 24 22 18 17 13
12 13 17 20 16 19 19 22 25 25 26 27 26 26 27 29 30 28 29 29 27 28 31 32 33 33 31 24 23 20 23 22
23 24 26 20 28 21 23 17 22 26 29 25 29 28 26 26 29 29 29 28 28 30 32 32 33 34 29 30 22 27 31 21

GFSFLT2_925_spd_117.txt.gz
Wind_Speed
24 24 22 20 19 18 16 15 15 15 16 15 14 15 15 15 17 16 14 12 13 13 10 8 9 12 13 12 11 9 4 9
23 24 23 22 20 19 17 16 15 15 17 18 16 16 16 15 17 16 16 13 13 14 12 7 10 13 12 10 9 7 9 9
22 24 24 22 21 19 18 17 16 15 16 18 18 18 18 17 17 17 17 16 16 15 13 10 12 14 14 12 10 6 8 14
19 23 25 23 22 21 20 20 20 19 18 18 19 19 19 19 19 19 19 18 17 17 14 15 16 18 18 14 13 6 12 17
23 23 24 24 23 23 23 22 21 20 20 20 19 19 19 18 19 22 21 20 20 20 17 17 17 20 20 17 15 15 8 16
28 25 25 24 24 22 21 24 24 23 23 21 20 20 22 21 20 22 24 24 23 22 20 17 19 21 19 19 19 19 16 11
36 34 33 29 28 25 21 23 25 24 23 23 22 21 23 23 23 23 25 25 25 23 22 21 21 22 20 20 23 22 20 15
43 42 40 37 33 29 26 28 25 23 23 24 25 25 24 24 25 23 24 25 27 25 25 24 23 21 20 20 23 27 25 17
40 44 43 40 36 33 30 25 30 27 27 24 26 27 27 27 26 25 24 22 22 24 26 23 23 20 22 21 23 26 25 17
45 41 43 40 38 38 30 26 27 30 26 27 25 27 27 27 26 25 25 23 23 25 26 26 25 26 23 22 22 22 23 20
37 41 44 43 38 35 36 26 24 27 31 30 30 29 29 25 27 27 26 26 24 25 25 27 27 27 24 21 22 24 24 20
31 44 48 45 40 35 31 33 26 21 26 30 30 34 29 27 27 24 25 26 26 26 26 25 26 25 24 22 23 25 25 24
22 33 36 38 37 33 26 31 33 33 25 24 26 31 32 30 29 26 27 29 28 27 26 26 21 24 18 17 22 25 27 26
20 26 32 33 33 33 27 31 31 35 35 30 28 29 31 29 32 32 25 29 27 27 28 22 19 24 10 10 3 6 19 28
14 15 19 30 30 29 20 27 18 28 33 31 29 28 28 29 33 33 31 32 29 28 28 27 17 25 24 7 3 3 7 18
14 10 7 6 3 28 32 27 20 29 31 34 27 21 29 31 31 33 36 32 30 30 29 28 22 20 23 25 10 6 4 3
16 11 11 11 12 12 23 31 32 28 29 30 30 29 26 35 34 34 33 35 31 30 29 29 31 22 22 15 14 10 17 6
29 25 21 17 19 17 11 25 29 23 23 25 27 30 29 34 32 34 33 34 33 31 30 31 32 28 27 23 22 16 17 15
25 26 25 23 22 24 21 19 28 28 30 29 28 30 29 33 34 34 35 34 31 30 30 31 30 30 29 28 25 22 23 22
25 26 27 27 27 29 28 24 26 31 30 28 31 30 32 33 35 35 35 32 29 30 30 30 30 29 29 29 27 26 26 27

GFSFLT2_925_spd_120.txt.gz
Wind_Speed
30 28 26 25 25 24 22 21 21 22 20 20 20 20 19 18 18 17 16 15 15 14 11 8 9 11 12 12 13 11 8 12
31 29 27 26 25 23 22 21 21 21 21 20 20 20 20 18 19 18 17 16 16 15 13 9 10 11 12 12 11 10 9 16
30 30 28 27 26 25 23 22 21 21 21 20 19 20 20 20 20 19 19 18 17 16 15 10 10 13 13 12 11 11 13 12
31 31 30 28 27 26 25 23 22 22 22 22 22 21 21 20 20 21 21 20 19 17 16 12 13 15 15 12 11 11 12 15
30 31 31 30 30 28 27 27 25 24 23 22 22 22 21 21 21 22 22 22 21 19 18 15 16 16 16 16 12 12 17 17
31 31 31 31 30 30 29 29 27 26 25 23 23 24 23 23 23 23 25 25 24 23 21 18 18 17 18 18 15 15 18 20
38 35 35 34 33 31 31 30 29 27 26 26 25 26 26 26 25 25 27 26 26 24 23 22 20 19 19 18 18 18 18 21
39 40 40 39 39 36 34 31 30 29 29 28 27 26 27 28 27 27 27 28 26 25 25 24 22 21 21 20 19 21 21 22
40 42 41 41 41 38 36 33 29 30 29 28 28 28 27 28 28 28 29 28 27 26 25 24 23 21 21 20 19 23 24 24
39 37 42 42 41 38 36 34 32 31 29 28 28 29 29 29 29 29 27 27 27 28 27 26 26 24 24 21 19 21 25 27
40 41 42 45 44 41 39 37 35 34 32 31 30 30 31 30 30 29 27 26 27 27 27 30 29 27 25 22 21 22 23 25
42 45 47 46 43 38 37 34 34 32 34 31 30 31 31 32 30 28 28 28 28 28 30 30 30 27 23 21 22 21 21 26
33 42 45 37 30 30 30 32 29 31 33 33 32 31 31 31 30 28 30 31 31 29 28 30 26 24 18 15 20 20 22 27
28 37 34 37 34 30 25 32 35 31 30 32 34 34 34 33 32 31 34 32 31 31 31 20 17 27 9 5 2 7 22 28
28 35 35 33 31 30 24 25 19 28 29 29 30 33 35 37 35 32 32 30 32 33 33 28 18 23 23 8 2 3 3 15
22 22 24 22 22 24 24 23 20 29 34 38 35 31 32 34 36 33 32 34 33 33 31 31 23 18 20 27 9 6 3 2
35 35 34 27 20 6 16 22 22 23 31 32 35 34 32 34 35 35 33 34 35 34 32 31 31 23 22 14 21 13 9 3
29 28 26 23 21 18 16 11 11 18 23 26 32 33 34 34 34 34 36 36 37 37 34 31 32 31 29 24 21 13 10 7
25 26 25 23 21 20 16 13 14 12 21 28 30 32 29 30 31 35 37 37 35 35 34 30 32 31 29 30 28 26 21 22
28 27 26 27 25 24 23 20 18 18 16 26 32 33 33 33 34 35 36 36 35 34 35 34 32 31 31 29 28 28 28 24

GFSFLT2_925_spd_123.txt.gz
Wind_Speed
33 32 30 28 28 27 26 26 26 25 24 23 23 21 20 19 19 19 17 16 15 15 14 13 14 15 15 15 14 12 7 14
35 33 31 30 28 26 25 25 26 25 24 23 23 22 20 19 18 18 17 16 15 15 14 11 13 14 16 14 13 11 10 14
36 34 33 32 30 27 25 25 25 25 24 23 23 23 21 19 19 18 17 17 15 15 14 11 11 13 15 14 14 12 13 16
39 39 34 32 31 29 27 26 26 26 26 25 25 24 23 22 20 19 17 17 17 16 15 12 11 15 16 15 14 12 15 16
39 38 39 35 32 31 29 27 27 27 27 27 26 25 24 23 22 22 20 19 18 17 17 15 13 16 16 15 14 14 15 16
41 39 38 38 36 33 32 31 29 30 30 28 27 27 26 25 24 24 24 23 22 21 20 17 15 16 16 15 15 13 15 17
42 41 40 39 38 37 35 34 33 32 31 31 29 30 29 27 26 26 26 26 26 24 22 19 17 17 17 17 17 15 16 19
41 42 42 41 40 39 39 37 35 33 32 33 32 31 30 29 27 27 27 28 28 26 24 22 21 19 18 18 19 17 18 19
42 43 42 41 42 40 40 38 37 35 34 32 32 31 29 29 29 28 28 29 28 26 25 23 22 20 19 19 19 18 20 22
41 39 43 42 42 40 41 40 38 37 35 33 32 31 30 29 30 30 28 28 29 28 26 25 24 22 21 21 20 19 20 24
35 37 41 43 41 40 38 36 35 35 33 33 32 32 30 29 29 29 27 28 29 29 28 26 25 23 22 21 20 18 19 23
39 40 41 42 39 33 35 34 33 32 31 32 30 31 30 30 29 28 28 28 29 29 28 28 26 25 21 22 22 21 19 21
38 38 41 36 32 32 30 32 36 35 34 31 30 31 30 31 31 29 29 30 31 29 27 26 25 22 16 13 18 22 22 23
44 43 40 41 35 37 27 30 33 36 33 31 33 33 33 32 33 32 30 30 30 30 29 21 19 24 11 5 2 6 21 26
37 42 39 38 31 28 22 24 17 24 28 30 32 32 34 34 33 32 33 31 34 32 32 27 18 23 23 8 2 4 4 13
16 16 17 18 22 23 25 20 14 26 30 31 31 30 33 35 34 33 33 33 34 32 32 33 25 18 21 28 11 4 3 2
33 31 25 18 20 17 10 7 4 1 21 27 31 31 33 36 36 36 35 33 33 33 32 33 32 24 21 12 21 12 9 2
35 36 30 27 26 22 18 15 7 2 3 12 23 30 33 35 37 40 36 37 37 33 30 36 34 31 30 27 20 10 11 6
26 27 27 25 23 21 16 12 6 3 5 8 15 24 29 33 37 39 38 36 38 38 35 35 35 34 32 30 29 28 22 19
25 27 27 25 23 19 15 11 7 5 7 10 14 21 28 33 36 37 37 35 34 35 37 35 36 35 33 31 29 29 26 24

GFSFLT2_925_spd_129.txt.gz
Wind_Speed
30 32 31 30 30 29 29 29 30 29 28 28 28 27 26 25 23 22 20 20 20 19 18 16 17 16 15 14 13 11 10 9
29 29 28 29 30 29 29 29 30 30 29 28 27 26 25 25 23 20 20 20 20 19 18 16 16 15 14 13 12 10 6 8
29 28 28 28 29 30 29 29 29 29 30 29 27 26 25 24 23 22 20 20 21 20 18 16 15 14 13 12 11 7 7 8
26 27 27 25 24 28 29 28 27 28 28 30 29 28 26 23 23 22 20 20 20 19 18 17 15 15 14 13 11 10 9 10
23 26 27 27 24 28 32 27 25 24 27 28 26 27 26 25 24 21 20 20 18 19 18 16 16 16 16 15 13 12 11 11
21 23 26 28 24 25 28 31 29 29 30 32 27 24 25 23 21 21 20 20 19 18 18 16 16 15 16 15 14 12 11 12
24 23 24 26 25 26 26 30 32 31 30 34 33 29 28 27 22 22 21 20 20 20 18 18 16 15 14 15 15 14 12 13
26 27 27 27 26 26 24 26 30 30 32 34 32 29 28 29 27 22 21 21 20 20 21 18 16 15 15 15 14 13 12 13
32 32 29 31 28 27 25 26 25 29 28 32 35 30 27 29 29 25 21 25 23 22 20 19 16 15 14 15 14 14 14 14
37 38 35 32 30 27 26 26 27 27 28 26 35 33 27 27 28 30 24 25 24 22 20 18 16 15 14 15 15 14 14 14
35 39 41 38 32 28 27 26 27 26 26 28 31 35 30 29 28 29 28 25 25 22 22 18 17 16 16 17 17 17 14 12
38 40 42 42 33 28 25 25 27 27 28 31 33 35 35 31 29 27 27 25 25 23 21 21 18 16 18 18 19 18 19 14
37 36 37 36 34 32 29 30 26 26 26 26 29 32 34 33 24 24 28 32 32 28 23 20 18 19 13 12 16 18 19 18
36 39 39 39 36 35 29 30 27 26 25 26 28 28 32 32 32 31 30 29 29 29 26 20 17 23 9 6 3 7 16 21
37 39 40 41 37 31 24 17 17 21 26 26 29 29 30 30 30 33 34 33 31 32 30 23 19 24 27 8 3 6 5 8
33 33 36 36 36 32 34 31 23 26 25 25 23 25 24 21 20 24 29 31 30 32 33 30 21 19 22 30 15 5 4 4
22 21 22 25 32 31 30 25 20 18 20 20 24 24 23 22 15 12 23 28 28 30 31 31 28 22 20 18 20 14 10 5
21 25 20 21 22 21 23 21 15 14 16 24 22 24 25 24 16 10 34 32 32 32 33 33 30 28 29 24 24 14 12 10
25 28 26 25 24 20 19 16 15 12 9 13 18 17 21 23 33 29 26 38 38 35 33 32 31 30 29 31 32 27 23 23
29 31 28 26 25 20 18 15 12 8 7 8 9 11 11 21 33 27 33 37 42 38 34 32 32 32 28 27 31 29 30 27

GFSFLT2_925_spd_132.txt.gz
Wind_Speed
19 23 29 29 29 29 29 30 30 30 29 29 29 28 26 25 23 22 20 19 19 19 18 17 16 15 15 14 12 11 7 7
19 22 22 23 26 28 28 29 30 30 29 29 28 27 26 25 24 22 21 20 20 19 18 17 17 15 14 13 12 10 5 6
20 22 22 22 21 25 28 29 30 30 29 28 27 21 22 23 22 22 21 20 20 18 18 17 16 14 13 12 10 6 5 5
22 22 23 23 22 23 25 25 25 25 25 24 24 21 21 20 20 21 20 20 19 18 17 16 15 12 12 12 8 5 6 5
22 22 22 24 23 23 26 26 26 26 26 25 24 22 21 21 19 20 17 19 17 17 16 14 13 12 12 11 9 8 6 6
24 24 25 26 24 25 25 27 28 28 28 27 27 24 23 23 21 22 20 19 18 18 16 15 13 13 12 11 10 8 7 6
26 27 27 27 27 25 27 28 29 28 28 29 28 27 25 24 22 21 21 20 19 19 17 16 15 13 12 12 11 10 8 7
25 29 29 28 28 26 27 28 28 28 28 28 31 27 25 24 22 22 21 21 19 18 17 16 15 14 13 12 12 11 9 9
26 30 31 30 30 29 27 26 25 29 27 28 30 27 25 24 23 22 21 20 19 18 17 16 15 14 13 13 12 12 11 10
26 29 33 33 31 30 28 27 27 26 28 26 30 28 25 25 23 24 21 21 20 20 19 18 17 16 14 14 13 13 12 11
29 30 34 35 34 30 29 27 28 28 26 27 28 35 30 25 24 22 22 20 21 21 21 20 19 17 16 15 13 12 11 11
30 31 35 38 34 32 29 27 28 28 29 29 26 31 35 30 22 21 25 23 21 22 21 20 20 18 16 14 14 13 13 13
34 33 36 36 36 36 33 31 26 27 27 27 27 27 31 32 23 21 24 25 25 24 23 21 19 17 11 9 11 14 15 15
37 37 37 39 38 39 38 35 32 30 26 26 27 26 27 32 27 22 22 23 23 23 23 17 19 20 12 8 4 8 16 19
38 39 39 40 41 37 33 29 26 26 28 29 28 26 25 31 26 23 21 21 20 20 21 19 16 20 22 11 5 7 6 12
37 38 39 40 40 38 39 35 30 32 32 28 27 28 27 25 25 26 23 23 16 16 20 21 19 18 16 25 25 12 5 5
34 35 37 39 39 39 37 33 30 28 25 25 27 26 27 28 28 26 24 15 12 10 16 21 24 22 20 16 24 19 14 10
24 29 31 36 38 37 34 32 26 23 22 23 24 24 29 30 33 33 25 20 4 13 22 24 27 28 28 26 22 15 20 17
14 15 17 15 22 20 22 26 22 21 19 23 24 24 27 33 32 34 32 27 34 49 40 31 31 34 38 30 28 26 22 23
23 20 24 27 25 22 20 18 24 20 15 16 17 20 19 22 26 26 26 32 35 33 33 35 36 38 39 35 30 28 25 25

GFSFLT2_925_spd_135.txt.gz
Wind_Speed
11 19 26 27 26 26 25 26 28 28 28 27 26 24 23 22 20 19 17 15 14 14 14 13 13 12 10 10 9 7 2 7
13 18 19 20 23 25 25 25 28 28 28 27 26 25 23 21 20 18 17 15 15 15 14 13 13 11 11 10 8 8 2 3
17 18 20 20 19 22 25 25 27 28 27 26 25 20 21 20 18 17 17 16 15 15 14 13 12 11 10 9 9 7 3 4
19 21 23 23 22 20 22 22 23 23 22 23 21 20 20 19 19 18 17 15 16 15 15 14 12 8 8 10 8 8 4 3
21 23 23 25 24 23 23 23 23 24 24 24 24 23 23 22 20 17 15 16 14 15 15 13 13 13 13 9 9 4 7 5
19 24 25 25 25 25 25 26 26 26 27 27 27 26 24 23 21 20 20 18 17 16 14 14 14 12 9 10 10 8 8 7
17 24 26 26 26 25 25 28 29 28 29 30 29 28 25 24 22 22 22 20 20 19 17 16 17 13 12 11 11 10 8 7
21 23 26 28 29 26 26 26 26 29 29 31 32 28 27 26 23 23 23 23 20 20 18 15 15 16 14 13 13 13 12 10
27 21 26 31 31 31 27 28 29 30 29 28 32 30 25 28 26 25 23 23 21 23 21 18 17 15 17 15 13 13 12 10
25 25 28 31 32 31 31 30 32 29 30 28 30 31 26 27 27 27 26 28 26 21 20 19 18 16 15 14 14 14 14 12
30 30 24 32 33 32 32 31 32 31 28 28 30 36 30 27 26 25 22 22 25 25 21 22 21 18 16 13 14 14 15 13
32 32 33 32 33 33 33 31 32 31 32 33 27 35 35 29 27 23 25 21 23 24 23 22 21 18 17 15 15 13 15 16
36 33 32 28 34 34 33 33 33 34 33 35 32 29 33 33 28 25 27 25 24 28 22 20 19 15 12 11 13 14 17 17
34 37 37 37 33 36 36 33 34 34 34 32 34 32 33 32 32 25 25 24 23 23 27 19 17 19 13 9 5 13 19 21
35 38 39 38 38 37 35 34 30 32 30 29 31 31 30 35 33 29 24 26 23 22 23 21 17 19 21 12 5 8 11 16
35 35 38 39 43 35 39 35 33 34 34 33 31 33 29 31 32 33 26 24 21 19 22 23 20 18 16 26 24 19 4 3
27 33 36 38 43 40 38 39 36 32 33 35 33 33 32 31 30 30 27 21 23 17 18 18 19 18 15 15 23 22 20 10
33 30 32 37 44 40 44 41 34 32 32 31 34 30 33 32 31 31 30 29 28 28 25 13 18 23 27 27 20 11 14 15
32 28 22 17 19 30 48 38 41 33 33 31 31 27 26 30 31 31 34 35 33 32 29 26 26 38 28 24 22 28 24 25
31 24 20 19 24 22 7 14 32 29 31 28 28 29 29 28 28 33 34 33 37 29 31 37 37 33 33 30 26 26 25 31

GFSFLT2_925_spd_138.txt.gz
Wind_Speed
6 11 23 21 20 20 19 20 23 23 24 23 22 21 20 19 18 16 14 11 10 10 10 9 9 8 6 6 4 1 11 7
7 5 19 21 21 20 20 20 22 24 25 24 23 21 20 19 18 16 15 12 11 11 11 11 10 8 7 6 5 3 7 6
10 10 15 18 18 21 21 21 23 24 24 24 23 22 21 19 18 16 15 13 12 12 12 11 10 9 8 7 7 4 5 3
16 16 20 19 19 18 23 22 23 25 26 25 24 21 20 18 18 17 16 15 14 14 14 13 11 9 9 8 7 0 2 7
16 22 24 25 23 24 23 20 23 26 24 24 26 23 20 21 21 20 18 18 17 17 16 16 14 13 9 8 7 6 8 7
13 22 27 29 25 25 26 25 24 24 26 26 27 25 23 24 23 23 19 20 18 19 17 16 14 15 14 9 10 9 1 7
29 17 31 28 29 23 27 30 29 27 28 30 28 27 27 25 24 24 23 21 21 20 19 17 17 17 12 11 11 9 7 6
31 29 20 32 28 33 23 28 29 32 30 32 33 29 28 29 26 25 25 24 23 25 22 23 20 19 15 13 13 12 12 7
24 29 25 32 32 30 31 29 26 34 31 33 37 34 30 31 31 26 26 27 25 23 21 18 19 19 18 17 14 13 12 14
26 27 28 20 33 30 32 25 33 26 33 32 39 40 33 31 32 30 28 26 31 22 24 22 21 21 23 21 17 16 15 14
24 26 30 31 25 35 34 34 30 41 31 31 37 41 41 31 31 29 28 28 27 27 25 23 25 21 12 18 16 17 16 16
40 30 31 31 33 34 34 39 34 33 32 38 33 40 42 35 30 31 31 28 27 33 23 16 22 22 22 17 13 13 12 14
41 42 46 36 31 26 36 35 35 34 38 36 30 40 40 37 31 32 32 30 28 28 31 23 22 20 25 9 17 18 18 20
40 43 49 41 34 30 31 39 38 38 37 40 45 35 41 46 32 33 36 31 26 31 32 23 18 21 9 5 3 7 18 25
42 42 46 43 34 35 37 38 39 39 39 36 45 36 43 49 40 30 37 35 29 30 32 32 20 16 18 7 3 5 6 19
39 41 43 45 35 34 34 26 34 37 39 40 37 43 42 44 45 43 32 37 38 26 32 32 28 20 19 27 23 10 2 1
36 39 40 42 45 30 35 34 32 41 39 40 39 43 41 42 46 48 35 34 33 33 34 34 32 26 24 16 24 25 28 9
37 35 37 39 40 38 29 33 29 38 44 42 35 36 36 39 41 41 45 31 36 39 39 38 33 36 36 32 25 12 16 12
36 36 40 38 36 35 30 29 31 36 50 42 38 32 35 37 42 40 41 39 38 42 39 37 41 39 34 35 27 25 23 22
33 34 37 40 36 31 24 20 25 29 47 40 41 40 39 39 41 42 42 42 36 40 36 35 30 31 27 26 27 26 27 31

GFSFLT2_925_spd_141.txt.gz
Wind_Speed
7 6 14 17 16 16 17 19 21 21 21 21 21 19 18 17 16 15 14 12 10 10 10 9 8 8 7 7 8 8 14 15
7 8 10 21 20 18 17 18 21 22 22 22 22 20 19 19 18 16 14 13 12 11 11 11 10 9 8 8 9 8 11 14
9 10 10 22 22 20 19 18 20 22 23 23 23 22 22 21 20 18 16 14 13 13 13 12 11 10 10 9 10 8 9 12
15 16 15 21 24 22 22 22 22 24 26 26 25 24 23 23 21 20 18 16 15 14 14 13 12 10 9 9 9 5 8 13
14 19 19 21 26 24 24 26 25 26 28 29 28 26 24 24 23 21 20 18 18 18 17 16 13 11 9 8 9 6 4 13
24 19 18 25 25 27 27 28 27 28 30 31 31 30 26 26 25 26 24 23 22 21 20 17 16 13 11 7 9 7 6 13
38 30 25 17 29 30 33 33 33 34 33 33 33 33 31 28 29 28 27 25 24 23 21 19 18 18 16 15 10 10 10 7
42 43 33 26 23 34 32 36 35 36 36 37 36 37 36 32 33 31 30 28 27 24 23 20 21 19 18 17 11 11 11 9
40 43 41 35 28 27 34 31 35 37 39 38 40 38 39 37 36 33 31 28 26 25 24 22 20 20 21 19 15 15 13 12
43 42 44 43 38 30 29 35 32 32 35 41 41 42 41 39 40 36 34 31 30 30 30 30 28 27 26 20 18 17 16 15
44 43 43 45 43 37 31 32 38 37 33 37 44 45 45 42 41 40 37 35 35 33 30 29 26 23 21 21 23 19 19 18
37 41 40 47 40 39 34 31 37 38 39 41 40 47 48 44 40 41 42 39 38 36 33 28 30 25 22 12 17 21 19 22
39 41 46 41 42 35 37 32 29 38 38 41 43 43 50 50 41 43 43 39 40 39 37 29 27 28 30 23 17 19 16 16
40 38 39 43 35 39 33 36 34 32 38 41 43 45 46 51 44 43 42 37 40 42 40 30 26 26 18 9 2 8 23 27
40 41 38 37 38 38 40 37 35 35 33 36 43 48 46 50 46 41 43 42 41 42 42 37 27 30 26 12 3 5 5 21
36 38 36 35 37 34 30 28 25 32 31 33 38 44 49 47 49 46 46 43 37 42 42 41 32 28 29 31 13 11 4 2
35 37 36 36 35 31 30 30 28 26 31 33 42 43 49 51 52 51 48 46 41 42 43 41 41 32 32 29 30 24 17 3
35 35 36 37 36 34 30 28 29 27 29 28 35 38 44 54 56 53 49 47 45 47 47 46 46 35 34 32 28 19 19 12
39 36 36 35 37 35 34 29 25 24 25 25 25 31 38 48 57 50 47 45 46 50 45 44 45 40 39 34 29 29 16 23
38 38 37 37 38 38 38 31 27 22 22 23 28 28 29 38 50 50 49 44 47 45 41 39 42 46 37 32 32 32 29 22

GFSFLT2_925_spd_147.txt.gz
Wind_Speed
6 5 6 9 11 12 12 14 16 17 17 16 16 16 16 16 17 16 15 14 13 13 14 14 14 15 14 14 11 7 11 18
18 14 12 12 13 14 15 16 17 17 18 17 17 18 18 17 17 17 17 16 15 14 15 15 15 15 15 14 10 10 14 14
31 25 21 17 17 17 17 17 16 17 19 19 20 21 21 20 20 19 19 18 16 16 16 16 16 15 15 15 12 11 15 14
32 30 30 24 17 17 18 19 19 20 21 21 23 24 24 24 23 22 21 19 18 18 17 17 18 18 17 17 14 13 16 14
34 30 29 27 26 17 17 24 24 22 23 25 26 27 26 26 25 24 23 22 21 20 20 21 21 20 20 19 17 14 18 14
36 33 33 29 26 21 17 17 20 28 29 27 30 31 30 30 30 29 27 27 26 25 25 25 23 22 22 21 20 16 19 17
37 34 36 34 31 26 22 20 19 21 30 37 32 33 35 31 32 30 28 29 31 30 29 28 27 25 24 23 22 20 19 19
33 33 36 36 35 32 30 27 24 22 21 31 37 38 35 37 34 33 31 30 35 34 33 32 31 29 27 25 24 23 22 20
29 30 36 37 36 35 33 32 31 28 26 24 33 36 38 37 38 33 36 33 36 37 36 34 33 31 30 29 27 26 26 24
33 32 34 39 37 35 34 32 33 33 31 29 24 31 38 40 38 40 38 37 36 39 39 38 36 35 34 34 32 29 28 25
36 39 40 41 37 33 34 34 35 34 35 34 29 26 31 39 41 42 40 36 35 35 37 39 38 37 37 36 36 34 30 27
30 35 39 42 32 29 28 32 35 33 34 35 35 32 28 36 40 38 36 37 34 34 35 36 35 37 35 35 38 37 33 34
29 31 33 35 35 35 33 30 32 34 34 38 36 33 30 30 38 42 42 35 36 36 35 33 34 34 24 21 29 38 38 37
35 33 33 31 30 30 29 29 30 30 30 33 33 37 34 27 31 36 42 42 39 41 37 34 33 32 22 9 5 14 33 36
29 30 32 31 32 30 28 29 26 26 30 34 35 37 38 36 33 31 37 40 31 37 38 41 33 31 36 13 3 7 3 20
31 30 31 30 32 30 30 28 28 30 32 33 34 35 36 38 34 30 31 35 38 41 51 46 39 29 27 36 22 13 4 3
32 30 31 31 30 28 27 27 30 30 32 33 33 33 33 33 32 27 26 31 32 40 32 42 38 39 29 29 30 18 14 3
28 29 28 29 29 28 28 29 31 31 30 31 30 33 33 31 29 29 24 26 29 30 28 42 28 35 32 30 33 25 11 5
28 29 30 31 29 29 30 30 31 30 29 28 31 29 29 34 32 29 25 22 26 28 29 42 46 47 41 36 35 37 33 26
28 30 31 32 31 30 29 31 30 29 30 31 28 28 30 34 34 30 36 30 24 22 29 37 41 49 43 47 41 37 36 32

GFSFLT2_925_spd_153.txt.gz
Wind_Speed
24 23 20 15 12 10 8 7 8 9 11 10 11 12 13 14 14 14 15 15 14 14 15 15 15 14 14 15 13 12 9 8
26 24 21 18 18 14 9 7 8 8 8 12 14 14 14 15 16 16 16 16 16 16 17 17 17 16 16 16 15 13 10 9
26 26 24 21 18 17 14 11 8 6 8 9 12 15 15 16 18 19 19 19 18 18 19 19 18 17 17 16 16 12 10 9
26 27 27 24 21 20 19 17 15 11 10 8 9 14 16 20 21 21 22 21 21 21 21 21 19 16 17 18 17 14 13 12
24 26 27 26 24 24 22 21 20 16 15 14 13 11 15 20 22 22 23 22 23 22 22 22 20 18 17 17 17 18 14 13
23 25 27 27 25 23 23 23 23 22 21 18 17 15 14 17 21 25 24 25 26 28 22 22 23 23 21 22 23 20 17 15
22 23 27 27 25 24 22 22 22 24 22 20 20 19 19 20 18 23 26 25 26 28 30 23 24 24 23 25 23 23 21 18
21 21 23 23 23 24 23 22 22 21 21 23 23 20 20 21 25 22 23 29 29 27 31 34 26 25 26 27 25 23 23 21
21 20 22 22 21 21 21 22 22 20 21 22 21 20 20 21 22 26 29 24 31 32 31 34 29 27 28 26 27 27 24 24
20 21 23 23 22 20 19 20 19 20 21 21 21 22 22 21 21 21 25 29 27 34 33 26 28 27 27 28 27 26 27 26
23 23 25 23 21 19 20 20 21 21 21 22 24 24 23 23 22 23 23 25 27 28 28 26 26 28 29 30 29 29 29 27
19 19 22 21 21 21 21 22 21 22 21 24 24 24 26 25 23 23 22 21 26 25 34 37 36 32 29 31 31 30 30 30
19 19 21 23 24 26 25 26 23 25 25 27 27 26 26 25 26 25 24 24 24 29 33 33 31 31 20 23 28 28 30 32
17 19 20 21 22 21 23 23 19 23 27 28 28 29 27 27 28 28 27 26 26 26 26 27 34 34 24 17 7 19 29 33
16 17 18 19 21 20 21 18 20 21 27 29 34 31 29 28 27 31 28 25 24 27 28 26 24 26 38 20 4 11 12 23
13 15 16 18 20 20 21 20 22 24 24 26 29 30 30 29 28 30 32 31 29 29 26 27 28 27 29 39 37 15 7 9
14 16 18 19 19 19 19 19 20 21 25 27 28 30 28 28 33 34 32 32 30 30 31 29 29 28 30 21 36 28 22 0
15 17 18 19 19 19 20 21 23 25 28 27 30 31 32 32 35 33 34 31 31 30 31 31 31 29 30 31 24 10 12 9
17 18 19 19 20 20 20 21 22 22 25 26 29 33 34 33 35 33 31 30 31 29 30 30 31 31 30 30 25 25 21 26
17 17 18 19 19 21 20 20 21 21 23 25 26 28 34 34 33 32 32 31 28 28 28 27 26 27 30 31 32 33 30 29

GFSFLT2_925_spd_156.txt.gz
Wind_Speed
19 19 16 12 13 8 8 7 5 2 5 8 10 13 14 14 14 15 16 16 16 16 15 15 14 14 14 14 13 12 10 9
21 20 19 17 15 10 10 8 7 6 5 3 10 13 14 17 16 17 18 18 17 18 17 17 16 16 15 15 15 15 13 12
20 21 20 19 16 15 14 11 11 8 6 7 5 7 12 15 16 18 20 19 20 20 19 19 18 18 18 17 17 15 15 13
21 20 21 19 16 16 15 14 14 14 15 14 12 11 9 13 16 19 19 21 23 22 21 20 19 17 17 19 18 17 17 15
19 20 20 19 16 16 15 14 15 14 16 16 15 14 14 13 12 15 16 19 21 22 21 20 19 19 19 19 19 19 18 17
18 19 19 19 16 15 15 15 16 15 16 17 18 16 16 15 16 17 14 18 20 20 22 20 21 23 24 22 21 20 19 19
17 17 18 17 16 15 14 15 15 16 15 16 18 17 18 18 18 18 21 19 18 22 25 24 25 26 25 25 24 23 22 20
16 16 17 15 14 14 13 15 15 15 14 16 18 18 19 20 20 20 20 18 22 19 21 29 30 28 27 27 27 25 24 24
16 15 16 15 15 14 13 14 14 14 15 16 17 19 20 21 20 20 20 20 23 23 25 28 30 29 31 28 26 26 27 26
13 14 16 16 15 13 13 14 13 14 15 16 19 19 19 21 21 21 21 22 22 22 23 24 30 31 31 30 26 27 28 28
12 13 15 15 14 13 12 12 11 12 13 16 19 18 19 20 21 21 22 22 21 22 23 21 23 29 30 32 29 27 31 29
11 13 15 15 13 13 12 12 11 13 14 17 18 18 19 19 18 20 23 23 22 21 25 25 24 26 28 32 31 31 30 32
12 14 16 16 15 15 14 16 14 15 17 19 19 20 20 19 19 20 20 22 24 24 27 27 27 25 30 31 33 34 34 32
12 13 14 14 13 13 13 13 12 14 17 19 21 22 22 20 21 20 21 24 24 25 24 25 28 25 20 22 10 19 30 32
11 12 12 13 14 13 14 12 13 17 20 21 23 22 21 20 20 22 23 23 25 24 25 25 25 27 30 17 7 12 11 28
9 10 11 13 14 14 15 15 16 17 18 19 20 21 21 20 21 24 23 24 26 26 26 28 25 24 28 29 40 25 9 12
8 9 10 12 13 13 13 14 14 15 17 19 19 19 18 20 21 22 24 25 26 27 29 29 27 27 26 26 28 30 40 12
7 9 10 12 13 13 13 14 15 16 18 18 20 19 20 21 25 22 23 24 26 29 29 28 29 30 29 26 26 16 13 16
8 10 11 13 13 13 14 15 15 15 18 19 21 23 24 26 27 27 26 27 27 28 29 30 28 29 29 27 27 30 34 27
9 9 10 13 13 14 14 15 15 15 16 19 19 22 24 26 26 26 26 28 30 30 30 29 28 29 30 29 28 30 32 27

GFSFLT2_925_spd_159.txt.gz
Wind_Speed
15 15 15 16 15 9 6 6 6 7 8 8 11 11 12 13 15 16 17 17 17 16 16 15 14 13 14 14 15 14 13 14
16 15 15 14 13 15 14 14 12 10 9 10 11 9 11 14 16 18 19 19 19 18 18 17 16 16 16 17 17 18 17 15
15 15 15 14 12 14 15 16 17 17 16 15 13 13 14 9 12 17 20 21 21 20 20 20 19 19 20 20 19 17 17 17
15 16 16 15 12 13 12 12 13 14 16 17 14 15 14 18 16 15 16 21 23 23 24 23 23 19 19 21 21 19 20 21
14 15 15 16 14 13 12 12 13 12 15 16 16 15 14 14 15 16 19 13 15 21 24 24 24 22 21 21 19 19 22 23
14 15 16 16 13 13 12 12 14 13 14 16 17 15 15 15 15 17 16 19 21 16 21 25 27 27 26 24 23 22 21 23
14 15 16 15 14 13 13 14 14 14 14 16 17 17 16 16 16 17 17 17 17 23 24 22 24 27 28 27 26 25 24 23
12 13 15 14 14 14 13 13 13 13 14 16 17 18 17 18 18 17 16 17 18 20 23 27 28 25 30 33 28 27 27 25
11 12 13 13 12 12 11 13 13 13 13 14 18 18 19 20 18 18 17 19 21 21 23 23 25 26 27 30 34 32 29 29
11 11 12 11 11 11 11 12 12 12 13 14 17 17 19 19 17 18 20 21 21 21 22 24 24 27 27 28 29 33 33 31
9 10 12 11 10 10 10 10 10 11 12 15 18 17 19 19 17 18 20 21 21 22 23 24 27 27 28 29 29 30 37 36
8 9 11 10 9 9 8 9 9 10 12 14 15 16 18 18 17 18 19 20 20 22 25 25 27 31 30 31 30 29 31 35
8 9 10 12 10 11 11 11 10 10 12 14 15 16 17 17 18 18 18 19 21 23 24 26 24 25 28 29 31 31 32 33
6 7 9 10 11 10 11 11 10 9 12 14 17 18 18 18 18 19 21 20 19 21 22 25 24 22 20 24 11 21 30 33
5 7 8 10 12 10 11 9 9 12 15 16 19 19 20 20 20 21 20 19 20 21 22 22 25 25 21 11 6 10 12 26
5 6 9 10 11 11 12 12 13 14 15 16 16 17 18 19 22 22 21 21 19 21 22 25 23 23 24 21 24 21 6 10
5 6 9 10 11 12 11 12 13 14 16 18 17 17 17 18 22 22 22 22 22 22 23 24 25 25 23 24 26 28 28 11
6 7 8 10 10 10 11 12 13 14 17 17 19 18 17 18 23 22 22 22 23 23 23 23 24 26 27 26 24 16 14 11
6 7 7 8 9 10 11 11 11 12 15 17 19 20 20 21 23 23 24 23 24 24 24 22 23 26 27 28 28 28 27 25
6 7 7 8 9 9 10 10 11 10 12 14 15 17 19 21 23 23 24 24 26 25 24 24 24 28 30 30 29 28 28 26